📊 Raw Sensor Data
Showing records 43301 to 43325 of 85,015 total
| ID | Distance (ft) | Battery V | Battery A | Int Temp (°F) | Int Humid (%) | Ext Temp (°F) | Solar V | RSSI | SNR | Time Stamp |
|---|---|---|---|---|---|---|---|---|---|---|
| 41727 | 15.8 | 3.88 | 0 | 90 | 48 | 82 | 5.10 | -70 | 8 | 05/26/2025 05:30 PM |
| 41726 | 15.8 | 3.89 | 0 | 90 | 47 | 81 | 5.10 | -70 | 7 | 05/26/2025 05:15 PM |
| 41725 | 15.8 | 3.89 | 0 | 91 | 47 | 81 | 5.10 | -70 | 8 | 05/26/2025 05:00 PM |
| 41724 | 15.8 | 3.89 | 0 | 92 | 45 | 82 | 5.10 | -69 | 8 | 05/26/2025 04:30 PM |
| 41723 | 15.8 | 3.89 | 0 | 93 | 44 | 86 | 5.10 | -69 | 8 | 05/26/2025 04:15 PM |
| 41722 | 15.8 | 3.89 | 0 | 93 | 44 | 82 | 5.10 | -69 | 8 | 05/26/2025 04:00 PM |
| 41721 | 15.8 | 3.89 | 0 | 92 | 44 | 86 | 5.10 | -69 | 7 | 05/26/2025 03:45 PM |
| 41720 | 15.8 | 3.99 | 0 | 91 | 43 | 80 | 5.10 | -69 | 8 | 05/26/2025 03:30 PM |
| 41719 | 15.8 | 3.89 | 0 | 91 | 43 | 83 | 5.10 | -68 | 7 | 05/26/2025 03:15 PM |
| 41718 | 15.8 | 4.08 | 0 | 91 | 42 | 81 | 5.10 | -69 | 7 | 05/26/2025 03:00 PM |
| 41717 | 15.8 | 3.94 | 0 | 91 | 41 | 78 | 5.10 | -68 | 8 | 05/26/2025 02:45 PM |
| 41716 | 15.8 | 4.10 | 0 | 91 | 40 | 85 | 5.10 | -68 | 7 | 05/26/2025 02:30 PM |
| 41715 | 15.8 | 3.89 | 0 | 89 | 40 | 79 | 5.10 | -67 | 7 | 05/26/2025 02:15 PM |
| 41714 | 15.8 | 4.01 | 0 | 87 | 41 | 79 | 5.10 | -70 | 8 | 05/26/2025 02:00 PM |
| 41713 | 15.8 | 3.89 | 0 | 86 | 41 | 80 | 5.10 | -68 | 8 | 05/26/2025 01:45 PM |
| 41712 | 15.8 | 3.89 | 0 | 85 | 41 | 78 | 5.10 | -69 | 7 | 05/26/2025 01:30 PM |
| 41711 | 15.8 | 4.02 | 0 | 84 | 41 | 78 | 5.10 | -68 | 7 | 05/26/2025 01:15 PM |
| 41710 | 15.8 | 3.89 | 0 | 82 | 41 | 78 | 5.10 | -68 | 7 | 05/26/2025 01:00 PM |
| 41709 | 15.8 | 3.89 | 0 | 80 | 41 | 74 | 5.10 | -69 | 7 | 05/26/2025 12:45 PM |
| 41708 | 15.8 | 3.89 | 0 | 78 | 42 | 73 | 5.10 | -69 | 7 | 05/26/2025 12:30 PM |
| 41707 | 15.8 | 3.89 | 0 | 77 | 42 | 78 | 5.10 | -68 | 7 | 05/26/2025 12:15 PM |
| 41706 | 15.8 | 3.89 | 0 | 76 | 42 | 71 | 5.10 | -68 | 8 | 05/26/2025 12:00 PM |
| 41705 | 15.7 | 3.89 | 0 | 75 | 42 | 71 | 5.10 | -69 | 8 | 05/26/2025 11:45 AM |
| 41704 | 15.9 | 3.89 | 0 | 74 | 42 | 73 | 5.10 | -68 | 7 | 05/26/2025 11:30 AM |
| 41703 | 15.9 | 4.01 | 0 | 73 | 42 | 76 | 5.10 | -68 | 8 | 05/26/2025 11:15 AM |